Airport Information

KFHR - Friday Harbor Airport

KFHR 241453Z AUTO 00000KT 10SM BKN075 12/09 A3007 RMK AO2 SLP182 T01220089 56003


  • General Information

  • Coordinates: N 48°31'18"/ W 123°1'27"
  • Location: N/A
  • Surveyed Elevation: 113 MSL

Operations

Flow Name Active Runways Conditions

Green background denotes normal operations.


Common Frequencies

Callsign Frequency Position Name

More at the Document Center


Charts